Location: Boncourt
(49.6160°N, 3.9448°E)
Time: 15:55:51
(UTC+00:00)

IGS 5A - Visible Passes

Search period start: 30 September 2023 00:00
Search period end: 10 October 2023 00:00
Orbit: 575 x 580 km, 97.4° (Epoch: 26 September)

Date Brightness Start Highest point End Pass type
(mag) Time Alt. Az. Time Alt. Az. Time Alt. Az.
30 Sep 3.4 18:17:02 10° SSE 18:21:06 69° ENE 18:25:11 10° N visible
30 Sep 6.5 19:54:51 10° WSW 19:56:53 13° W 19:58:55 10° WNW visible
01 Oct 3.3 18:21:12 10° SSE 18:25:17 76° ENE 18:29:24 10° N visible
01 Oct 6.5 19:59:28 10° WSW 20:01:07 12° W 20:02:47 10° WNW visible
02 Oct 3.4 18:25:22 10° SSE 18:29:28 84° ENE 18:33:35 10° NNW visible
02 Oct 6.7 20:04:16 10° WSW 20:05:22 11° W 20:06:28 10° WNW visible
03 Oct 3.4 18:29:32 10° SSE 18:33:38 88° WSW 18:37:46 10° NNW visible
04 Oct 3.5 18:33:43 10° S 18:37:48 80° WSW 18:41:57 10° NNW visible
05 Oct 3.7 18:37:54 10° S 18:41:59 72° WSW 18:46:06 10° NNW visible
06 Oct 3.8 18:42:05 10° S 18:46:08 65° WSW 18:50:15 10° NNW visible
07 Oct 4.0 18:46:17 10° S 18:50:19 58° W 18:54:23 10° NNW visible
08 Oct 4.2 18:50:29 10° S 18:54:28 52° W 18:58:31 10° NNW visible
09 Oct 4.4 18:54:41 10° S 18:58:38 47° W 19:02:37 10° NNW visible
